Regional Weather Roundup
Issued by NWS

Home | Current Version | Previous Version | Graphics & Text | Print | Product List | Glossary On
Versions: 1 2 3 4 5 6 7 8 9 10 11 12 13 14 15 16 17 18 19 20 21 22 23 24 25 26 27 28 29 30 31 32 33 34 35 36 37 38 39 40 41 42 43 44 45 46 47 48 49 50
000
ASUS43 KLOT 201404
RWRIL

ILLINOIS REGIONAL WEATHER ROUNDUP
NATIONAL WEATHER SERVICE CHICAGO/ROMEOVILLE IL
900 AM CDT THU JUL 20 2017

NOTE: "FAIR" INDICATES FEW OR NO CLOUDS BELOW 12,000 FEET WITH NO
SIGNIFICANT WEATHER AND/OR OBSTRUCTIONS TO VISIBILITY.

* THESE STATIONS ARE NOT UNDER NWS QUALITY CONTROL. THEY ALSO MAY NOT
  REPORT WEATHER SUCH AS PRECIPITATION OR FOG.

ILZ001-002-007-009-015-016-024-201500-
NORTHWEST ILLINOIS

CITY           SKY/WX    TMP DP  RH WIND       PRES   REMARKS
MOLINE         PTSUNNY   76  71  85 SE10      30.00F
STERLING*      CLOUDY    74  72  93 S8        30.02F
SAVANNA*       CLOUDY    72  71  97 S7        30.01S
$$

ILZ003-004-008-010-011-017-018-201500-
NORTH CENTRAL ILLINOIS

CITY           SKY/WX    TMP DP  RH WIND       PRES   REMARKS
ROCKFORD       CLOUDY    73  69  87 S13       30.02F
FREEPORT*      PTSUNNY   70  69  95 S12       30.02F
ROCHELLE*      CLOUDY    71  70  97 S6        30.03F
DE KALB*       CLOUDY    69  69  98 S13       30.04F
PERU*          CLOUDY   N/A N/A N/A SE8       30.06F
$$

ILZ005-006-012>014-019>023-201500-
NORTHEAST ILLINOIS

CITY           SKY/WX    TMP DP  RH WIND       PRES   REMARKS
CHICAGO-OHARE  CLOUDY    70  67  90 S14       30.02R
CHICAGO-MIDWAY CLOUDY    71  70  96 S13       30.05S
AURORA         CLOUDY    69  69 100 SE8       30.06F
LANSING*       TSTM      69  68  96 SE7       30.10R
JOLIET*        CLOUDY    71  70  98 S5        30.08F
WAUKEGAN       CLOUDY    70  69  97 SW10      29.97R
DUPAGE AIRPORT CLOUDY    70  70 100 S13       30.05R
WHEELING       CLOUDY    70  70 100 S15       30.01R
MORRIS*        CLOUDY    70  68  94 S8        30.06F
ROMEOVILLE*    CLOUDY    69  67  94 SW7       30.07F THUNDER
NORTHERLY ISL    N/A     69  67  93 SE12        N/A
$$

LMZ740>746-201500-
SOUTHERN LAKE MICHIGAN

STATION/POSITION SKY/WX   TEMP    WIND        PRES    VSBY  WAVE
                          AIR SEA DIR/SP/G                  HT/PER
                          (F)     (DEG/KT/KT) (MB)    (MI)  (FT/S)
SOUTHERN BUOY              68 69  210/ 19/ 21 1014.2          2/ 4
WILMETTE HARBOR            70 71  180/ 17/ 23   N/A           3/ 2
HARRISON CRIB              69     140/ 26/ 29   N/A
BURNHAM HARBOR             69                   N/A
CALUMET HARBOR             69      20/  8/ 13 1018.3F
BURNS HARBOR               70      10/  7/  9 1020.0R
MICHIGAN CITY              69     270/  6/  7   N/A
MICHIGAN CITY 6N           71 74  320/  8/ 12   N/A           1/ 3
ST. JOSEPH                 69 73  250/  8/ 12 1018.8R         2/ 3
$$

ILZ025>027-034>036-040-047-049-050-058-095>099-201500-
WEST-CENTRAL ILLINOIS

CITY           SKY/WX    TMP DP  RH WIND       PRES   REMARKS
QUINCY         MOSUNNY   85  72  65 SW10      30.06R HX  91
GALESBURG*     PTSUNNY   79  73  84 E7        30.05R HX  82
MACOMB*        PTSUNNY   81  72  74 SW9       30.05S HX  84
JACKSONVILLE*  MOSUNNY   82  72  73 SW7       30.06S HX  86
PITTSFIELD*    PTSUNNY   84  73  70 SW10      30.08S HX  90
$$

ILZ028>032-037-038-041>044-048-051>054-059>061-201500-
CENTRAL ILLINOIS

CITY           SKY/WX    TMP DP  RH WIND       PRES   REMARKS
PONTIAC        CLOUDY    72  71  98 N7        30.12F
BLOOMINGTON    LGT RAIN  75  73  93 N14       30.13R
DECATUR        CLOUDY    81  72  74 W7        30.09R HX  85
PEORIA         LGT RAIN  76  75  97 NE9       30.08R
LACON*         CLOUDY    71  71  99 SE8       30.06F
SPRINGFIELD    CLOUDY    81  75  82 SW7       30.07R HX  87
TAYLORVILLE    PTSUNNY   80  73  78 W6        30.08R HX  84
$$

ILZ033-039-045-046-055>057-062-063-201500-
EAST-CENTRAL ILLINOIS

CITY           SKY/WX    TMP DP  RH WIND       PRES   REMARKS
CHAMPAIGN      CLOUDY    79  74  84 CALM      30.11R HX  82
RANTOUL*       LGT RAIN  77  75  95 CALM      30.12R
MATTOON        CLOUDY    81  75  82 SW7       30.08R HX  87
PARIS*         CLOUDY    78  75  91 SW3       30.10R HX  81
$$

ILZ079-100>102-201500-
SOUTHWEST ILLINOIS

CITY           SKY/WX    TMP DP  RH WIND       PRES   REMARKS
ALTON          MOSUNNY   84  73  70 W6        30.10R HX  91
BELLEVILLE     CLOUDY    86  73  66 SW10      30.09S HX  93
CAHOKIA*       CLOUDY    86  71  60 SW6       30.08S HX  91
SPARTA*        CLOUDY    84  73  69 SW5       30.11S HX  90
$$

ILZ064>066-069>071-074>076-080>082-084>086-088>090-092>094-201500-
SOUTH-CENTRAL ILLINOIS

CITY           SKY/WX    TMP DP  RH WIND       PRES   REMARKS
CARBONDALE     CLOUDY    83  77  82 W5        30.11R HX  92
CAIRO*         MOSUNNY   84  75  76 SW7       30.12R HX  92
EFFINGHAM*     MOSUNNY   84  74  72 SW9       30.10R HX  91
MARION         PTSUNNY   84  79  84 SW8       30.12R HX  96
CENTRALIA*     CLOUDY    84  74  73 SW8       30.09S HX  91
SALEM*         CLOUDY    86  72  63 W9        30.10S HX  92
METROPOLIS*    SUNNY     84  76  77 SW6       30.12F HX  92
$$

ILZ067-068-072-073-078-083-087-091-201500-
SOUTHEAST ILLINOIS

CITY           SKY/WX    TMP DP  RH WIND       PRES   REMARKS
LAWRENCEVILLE  CLOUDY    83  74  74 SW6       30.11R HX  89
FLORA*         CLOUDY    85  75  72 SW8       30.10R HX  93
FAIRFIELD*     CLOUDY    83  75  79 SW5       30.09S HX  90
HARRISBURG*    CLOUDY    83  76  79 SW5       30.12R HX  92
ROBINSON*      CLOUDY    81  75  80 SW3       30.11R HX  87
CARMI*         CLOUDY    82  77  84 SW5       30.10S HX  90
$$

ABBREVIATIONS USED IN REMARKS
   TC - TEMPERATURE IN CELSIUS
  WCI - WIND CHILL INDEX
   HX - HEAT INDEX
  VSB - VISIBILITY
$$





USA.gov is the U.S. government's official web portal to all federal, state and local government web resources and services.